| time (UTC) | temp F | wind direction | speed MPH | gust MPH | rain 1hr in | rain 24hr in | rain mn in | humidity % | barometer mb |
| 20260905052320 | 88 | 197 | 6.0 | 11.0 | 0.00 | 1.01 | 0.00 | 73 | 1012.1 |
| 20260905051800 | 88 | 191 | 6.0 | 11.0 | 0.00 | 1.01 | 0.00 | 72 | 1012.1 |
| 20260905051303 | 88 | 2 | 6.0 | 11.0 | 0.00 | 1.01 | 0.00 | 72 | 1012.1 |
| 20260905050754 | 88 | 192 | 6.0 | 11.0 | 0.00 | 1.01 | 0.00 | 72 | 1012.2 |
| 20260905045616 | 88 | 196 | 6.0 | 11.0 | 0.00 | 1.01 | 1.01 | 73 | 1012.2 |
| 20260905045112 | 88 | 194 | 6.0 | 11.0 | 0.00 | 1.01 | 1.01 | 73 | 1012.2 |
| 20260905044555 | 88 | 2 | 5.0 | 9.0 | 0.00 | 1.01 | 1.01 | 73 | 1012.3 |
| 20260905044032 | 88 | 187 | 5.0 | 9.0 | 0.00 | 1.01 | 1.01 | 74 | 1012.4 |
| 20260905043532 | 88 | 183 | 5.0 | 9.0 | 0.00 | 1.01 | 1.01 | 74 | 1012.3 |
| 20260905042418 | 88 | 194 | 5.0 | 9.0 | 0.00 | 1.01 | 1.01 | 74 | 1012.4 |
| 20260905041921 | 88 | 187 | 6.0 | 9.0 | 0.00 | 1.01 | 1.01 | 73 | 1012.4 |
| 20260905040727 | 88 | 202 | 5.0 | 9.0 | 0.00 | 1.01 | 1.01 | 74 | 1012.4 |
| 20260905040216 | 88 | 183 | 5.0 | 9.0 | 0.00 | 1.01 | 1.01 | 74 | 1012.4 |
| 20260905035713 | 88 | 180 | 5.0 | 9.0 | 0.00 | 1.01 | 1.01 | 74 | 1012.5 |
| 20260905035216 | 88 | 187 | 5.0 | 8.0 | 0.00 | 1.01 | 1.01 | 74 | 1012.5 |
| 20260905034654 | 88 | 182 | 5.0 | 8.0 | 0.00 | 1.01 | 1.01 | 75 | 1012.6 |
| 20260905034138 | 88 | 188 | 4.0 | 8.0 | 0.00 | 1.01 | 1.01 | 74 | 1012.7 |
| 20260905033637 | 88 | 180 | 4.0 | 8.0 | 0.00 | 1.01 | 1.01 | 74 | 1012.7 |
| 20260905031917 | 88 | 202 | 4.0 | 7.0 | 0.00 | 1.01 | 1.01 | 73 | 1012.7 |
| 20260905031407 | 88 | 196 | 4.0 | 7.0 | 0.00 | 1.01 | 1.01 | 74 | 1012.6 |
| 20260905030901 | 88 | 199 | 4.0 | 7.0 | 0.00 | 1.01 | 1.01 | 73 | 1012.6 |
| 20260905030407 | 88 | 188 | 4.0 | 8.0 | 0.00 | 1.01 | 1.01 | 73 | 1012.6 |
| 20260905025258 | 88 | 130 | 3.0 | 8.0 | 0.00 | 1.01 | 1.01 | 73 | 1012.7 |
| 20260905024146 | 88 | 221 | 3.0 | 6.0 | 0.00 | 1.01 | 1.01 | 73 | 1012.5 |
| 20260905023645 | 88 | 189 | 4.0 | 8.0 | 0.00 | 1.01 | 1.01 | 74 | 1012.4 |
| 20260905023136 | 88 | 150 | 5.0 | 8.0 | 0.00 | 1.01 | 1.01 | 74 | 1012.4 |
| 20260905022637 | 88 | 175 | 4.0 | 8.0 | 0.00 | 1.01 | 1.01 | 74 | 1012.3 |
| 20260905022121 | 88 | 2 | 4.0 | 8.0 | 0.00 | 1.01 | 1.01 | 74 | 1012.2 |
| 20260905015658 | 88 | 195 | 3.0 | 6.0 | 0.00 | 1.01 | 1.01 | 73 | 1012.1 |
| 20260905015149 | 88 | 2 | 2.0 | 5.0 | 0.00 | 1.01 | 1.01 | 73 | 1012.1 |
| 20260905014638 | 88 | 164 | 3.0 | 5.0 | 0.00 | 1.01 | 1.01 | 73 | 1012.0 |
| 20260905014120 | 88 | 134 | 2.0 | 5.0 | 0.00 | 1.01 | 1.01 | 73 | 1011.9 |
| 20260905012941 | 88 | 184 | 4.0 | 8.0 | 0.00 | 1.01 | 1.01 | 74 | 1011.8 |
| 20260905012443 | 88 | 162 | 3.0 | 8.0 | 0.00 | 1.01 | 1.01 | 74 | 1011.7 |
| 20260905011943 | 88 | 200 | 3.0 | 6.0 | 0.00 | 1.01 | 1.01 | 74 | 1011.7 |
| 20260905011444 | 88 | 153 | 3.0 | 6.0 | 0.00 | 1.01 | 1.01 | 74 | 1011.7 |
| 20260905010924 | 88 | 174 | 3.0 | 6.0 | 0.00 | 1.01 | 1.01 | 74 | 1011.6 |
| 20260905010429 | 88 | 121 | 4.0 | 8.0 | 0.00 | 1.01 | 1.01 | 74 | 1011.5 |
| 20260905005929 | 88 | 188 | 4.0 | 8.0 | 0.00 | 1.01 | 1.01 | 74 | 1011.3 |
| 20260905005417 | 88 | 164 | 4.0 | 8.0 | 0.00 | 1.01 | 1.01 | 74 | 1011.3 |
| 20260905004917 | 88 | 161 | 4.0 | 8.0 | 0.00 | 1.01 | 1.01 | 73 | 1011.2 |
| 20260905004414 | 88 | 150 | 3.0 | 6.0 | 0.00 | 1.01 | 1.01 | 73 | 1011.3 |
| 20260905003244 | 89 | 163 | 4.0 | 8.0 | 0.00 | 1.01 | 1.01 | 73 | 1011.3 |
| 20260905002722 | 89 | 101 | 3.0 | 8.0 | 0.00 | 1.01 | 1.01 | 72 | 1011.4 |
| 20260905001556 | 90 | 190 | 4.0 | 8.0 | 0.00 | 1.01 | 1.01 | 71 | 1011.4 |
| 20260905001036 | 90 | 194 | 4.0 | 8.0 | 0.00 | 1.01 | 1.01 | 71 | 1011.4 |
| 20260905000530 | 90 | 148 | 4.0 | 8.0 | 0.00 | 1.01 | 1.01 | 70 | 1011.4 |
| 20260905000015 | 90 | 204 | 4.0 | 8.0 | 0.00 | 1.01 | 1.01 | 70 | 1011.5 |
| 20260904235521 | 91 | 171 | 3.0 | 6.0 | 0.00 | 1.01 | 1.01 | 69 | 1011.5 |
| 20260904235015 | 91 | 172 | 3.0 | 6.0 | 0.00 | 1.01 | 1.01 | 69 | 1011.3 |
| 20260904234511 | 91 | 175 | 3.0 | 6.0 | 0.00 | 1.01 | 1.01 | 69 | 1011.2 |
| 20260904234012 | 91 | 173 | 3.0 | 6.0 | 0.00 | 1.01 | 1.01 | 68 | 1011.4 |
| 20260904233455 | 91 | 161 | 3.0 | 6.0 | 0.00 | 1.01 | 1.01 | 69 | 1011.3 |
| 20260904232937 | 91 | 175 | 3.0 | 6.0 | 0.00 | 1.01 | 1.01 | 68 | 1011.3 |
| 20260904232434 | 91 | 180 | 3.0 | 6.0 | 0.00 | 1.01 | 1.01 | 69 | 1011.4 |
| 20260904231938 | 91 | 151 | 3.0 | 6.0 | 0.00 | 1.01 | 1.01 | 68 | 1011.4 |
| 20260904231445 | 91 | 161 | 4.0 | 8.0 | 0.00 | 1.01 | 1.01 | 68 | 1011.5 |
| 20260904230942 | 91 | 140 | 4.0 | 8.0 | 0.00 | 1.01 | 1.01 | 68 | 1011.5 |
| 20260904230422 | 91 | 195 | 4.0 | 8.0 | 0.00 | 1.01 | 1.01 | 68 | 1011.5 |
| 20260904225859 | 91 | 136 | 3.0 | 8.0 | 0.00 | 1.01 | 1.01 | 68 | 1011.5 |
| 20260904225345 | 91 | 145 | 3.0 | 7.0 | 0.00 | 1.01 | 1.01 | 69 | 1011.4 |
| 20260904224826 | 91 | 243 | 3.0 | 6.0 | 0.00 | 1.01 | 1.01 | 69 | 1011.4 |
| 20260904224311 | 91 | 148 | 2.0 | 7.0 | 0.00 | 1.01 | 1.01 | 69 | 1011.6 |
| 20260904223808 | 91 | 162 | 2.0 | 7.0 | 0.00 | 1.01 | 1.01 | 68 | 1011.5 |
| 20260904223313 | 91 | 111 | 3.0 | 7.0 | 0.00 | 1.01 | 1.01 | 69 | 1011.6 |
| 20260904222803 | 91 | 197 | 2.0 | 7.0 | 0.00 | 1.01 | 1.01 | 68 | 1011.7 |
| 20260904222244 | 91 | 138 | 2.0 | 6.0 | 0.00 | 1.01 | 1.01 | 69 | 1011.6 |
| 20260904221742 | 91 | 179 | 3.0 | 6.0 | 0.00 | 1.01 | 1.01 | 68 | 1011.4 |
| 20260904221247 | 91 | 184 | 2.0 | 6.0 | 0.00 | 1.01 | 1.01 | 68 | 1011.4 |
| 20260904220751 | 91 | 121 | 2.0 | 6.0 | 0.00 | 1.01 | 1.01 | 68 | 1011.3 |
| 20260904220230 | 92 | 186 | 2.0 | 6.0 | 0.00 | 1.01 | 1.01 | 69 | 1011.4 |
| 20260904215735 | 92 | 111 | 3.0 | 6.0 | 0.00 | 1.01 | 1.01 | 70 | 1011.3 |
| 20260904215234 | 91 | 116 | 2.0 | 6.0 | 0.00 | 1.01 | 1.01 | 70 | 1011.5 |
| 20260904214738 | 91 | 146 | 2.0 | 8.0 | 0.00 | 1.01 | 1.01 | 71 | 1011.5 |
| 20260904214228 | 91 | 92 | 1.0 | 8.0 | 0.00 | 1.01 | 1.01 | 70 | 1011.5 |
| 20260904213725 | 91 | 83 | 2.0 | 8.0 | 0.00 | 1.01 | 1.01 | 70 | 1011.5 |
| 20260904213207 | 91 | 32 | 3.0 | 8.0 | 0.00 | 1.01 | 1.01 | 70 | 1011.7 |
| 20260904212707 | 91 | 93 | 3.0 | 8.0 | 0.00 | 1.01 | 1.01 | 70 | 1011.7 |
| 20260904212206 | 91 | 198 | 2.0 | 8.0 | 0.00 | 1.01 | 1.01 | 70 | 1011.8 |
| 20260904211653 | 91 | 90 | 2.0 | 7.0 | 0.00 | 1.01 | 1.01 | 69 | 1012.0 |
| 20260904211154 | 91 | 164 | 2.0 | 9.0 | 0.00 | 1.01 | 1.01 | 69 | 1011.9 |
| 20260904210634 | 92 | 202 | 3.0 | 9.0 | 0.00 | 1.01 | 1.01 | 69 | 1012.0 |
| 20260904205514 | 92 | 104 | 1.0 | 9.0 | 0.00 | 1.01 | 1.01 | 69 | 1011.9 |
| 20260904205007 | 92 | 105 | 1.0 | 6.0 | 0.00 | 1.01 | 1.01 | 69 | 1012.1 |
| 20260904204513 | 92 | 171 | 2.0 | 6.0 | 0.00 | 1.01 | 1.01 | 68 | 1012.1 |
| 20260904204001 | 92 | 280 | 1.0 | 5.0 | 0.00 | 1.01 | 1.01 | 68 | 1012.2 |
| 20260904203443 | 92 | 100 | 2.0 | 5.0 | 0.00 | 1.01 | 1.01 | 67 | 1012.2 |
| 20260904202936 | 92 | 125 | 2.0 | 11.0 | 0.00 | 1.01 | 1.01 | 67 | 1012.4 |
| 20260904202432 | 92 | 100 | 3.0 | 11.0 | 0.00 | 1.01 | 1.01 | 66 | 1012.5 |
| 20260904201909 | 92 | 107 | 5.0 | 11.0 | 0.00 | 1.01 | 1.01 | 65 | 1012.5 |
| 20260904201405 | 93 | 104 | 4.0 | 11.0 | 0.00 | 1.01 | 1.01 | 64 | 1012.6 |
| 20260904200224 | 94 | 201 | 2.0 | 9.0 | 0.00 | 1.01 | 1.01 | 61 | 1012.6 |
| 20260904195721 | 94 | 93 | 2.0 | 9.0 | 0.00 | 1.01 | 1.01 | 60 | 1012.7 |
| 20260904195206 | 94 | 57 | 2.0 | 9.0 | 0.00 | 1.01 | 1.01 | 61 | 1012.9 |
| 20260904194656 | 95 | 126 | 1.0 | 4.0 | 0.00 | 1.01 | 1.01 | 60 | 1012.9 |
| 20260904194202 | 94 | 111 | 1.0 | 4.0 | 0.00 | 1.01 | 1.01 | 61 | 1013.1 |
| 20260904193642 | 94 | 123 | 1.0 | 3.0 | 0.00 | 1.01 | 1.01 | 61 | 1013.0 |
| 20260904193138 | 93 | 91 | 1.0 | 3.0 | 0.00 | 1.01 | 1.01 | 61 | 1013.1 |
| 20260904192633 | 92 | 150 | 2.0 | 4.0 | 0.00 | 1.01 | 1.01 | 61 | 1013.1 |
| 20260904192128 | 92 | 180 | 2.0 | 4.0 | 0.00 | 1.01 | 1.01 | 59 | 1013.1 |
| 20260904185659 | 91 | 165 | 2.0 | 4.0 | 0.00 | 1.01 | 1.01 | 60 | 1013.3 |
| 20260904185156 | 91 | 178 | 2.0 | 4.0 | 0.00 | 1.01 | 1.01 | 62 | 1013.5 |
| 20260904184649 | 91 | 194 | 2.0 | 4.0 | 0.00 | 1.01 | 1.01 | 62 | 1013.5 |
| 20260904184133 | 91 | 176 | 2.0 | 4.0 | 0.00 | 1.01 | 1.01 | 64 | 1013.5 |
| 20260904183626 | 91 | 189 | 2.0 | 4.0 | 0.00 | 1.01 | 1.01 | 65 | 1013.4 |
| 20260904183120 | 91 | 175 | 2.0 | 4.0 | 0.00 | 1.01 | 1.01 | 65 | 1013.6 |
| 20260904182601 | 91 | 189 | 1.0 | 3.0 | 0.00 | 1.01 | 1.01 | 63 | 1013.6 |
| 20260904182054 | 92 | 197 | 1.0 | 5.0 | 0.00 | 1.01 | 1.01 | 62 | 1013.5 |
| 20260904181545 | 92 | 167 | 1.0 | 5.0 | 0.00 | 1.01 | 1.01 | 62 | 1013.6 |
| 20260904181052 | 92 | 116 | 2.0 | 5.0 | 0.00 | 1.01 | 1.01 | 63 | 1013.7 |
| 20260904180542 | 93 | 105 | 1.0 | 5.0 | 0.00 | 1.01 | 1.01 | 62 | 1013.8 |
| 20260904180040 | 93 | 103 | 0.0 | 3.0 | 0.00 | 1.01 | 1.01 | 63 | 1013.8 |
| 20260904175536 | 92 | 103 | 0.0 | 3.0 | 0.00 | 1.01 | 1.01 | 64 | 1013.9 |
| 20260904174406 | 91 | 106 | 0.0 | 3.0 | 0.00 | 1.01 | 1.01 | 65 | 1013.7 |
| 20260904173902 | 91 | 133 | 1.0 | 3.0 | 0.00 | 1.01 | 1.01 | 66 | 1013.9 |
| 20260904173342 | 90 | 186 | 2.0 | 3.0 | 0.00 | 1.01 | 1.01 | 66 | 1014.1 |
| 20260904172826 | 89 | 159 | 2.0 | 4.0 | 0.00 | 1.01 | 1.01 | 67 | 1014.3 |
| 20260904171705 | 89 | 190 | 2.0 | 5.0 | 0.00 | 1.01 | 1.01 | 68 | 1014.3 |
| 20260904171159 | 88 | 196 | 3.0 | 5.0 | 0.00 | 1.01 | 1.01 | 68 | 1014.4 |
| 20260904170644 | 88 | 176 | 3.0 | 8.0 | 0.00 | 1.01 | 1.01 | 68 | 1014.3 |
| 20260904170122 | 88 | 159 | 3.0 | 8.0 | 0.00 | 1.01 | 1.01 | 70 | 1014.3 |
| 20260904165607 | 88 | 134 | 3.0 | 8.0 | 0.00 | 1.01 | 1.01 | 69 | 1014.2 |
| 20260904165113 | 88 | 182 | 3.0 | 8.0 | 0.00 | 1.01 | 1.01 | 70 | 1014.2 |
| 20260904164000 | 87 | 191 | 2.0 | 5.0 | 0.00 | 1.01 | 1.01 | 71 | 1014.4 |
| 20260904163443 | 87 | 194 | 2.0 | 5.0 | 0.00 | 1.01 | 1.01 | 73 | 1014.4 |
| 20260904162943 | 87 | 100 | 1.0 | 4.0 | 0.00 | 1.01 | 1.01 | 76 | 1014.3 |
| 20260904162433 | 86 | 69 | 2.0 | 5.0 | 0.00 | 1.01 | 1.01 | 76 | 1014.4 |
| 20260904161927 | 86 | 72 | 1.0 | 5.0 | 0.00 | 1.01 | 1.01 | 79 | 1014.4 |
| 20260904161423 | 85 | 62 | 2.0 | 6.0 | 0.00 | 1.01 | 1.01 | 79 | 1014.3 |
| 20260904160909 | 84 | 61 | 3.0 | 6.0 | 0.00 | 1.01 | 1.01 | 80 | 1014.3 |
| 20260904160407 | 83 | 55 | 3.0 | 6.0 | 0.00 | 1.01 | 1.01 | 80 | 1014.3 |
| 20260904155901 | 83 | 78 | 2.0 | 6.0 | 0.00 | 1.01 | 1.01 | 80 | 1014.2 |
| 20260904155355 | 83 | 28 | 2.0 | 8.0 | 0.00 | 1.01 | 1.01 | 81 | 1014.1 |
| 20260904154225 | 82 | 73 | 4.0 | 9.0 | 0.04 | 1.01 | 1.01 | 82 | 1014.1 |
| 20260904153712 | 81 | 13 | 5.0 | 16.0 | 0.06 | 1.01 | 1.01 | 82 | 1014.0 |
| 20260904153200 | 80 | 16 | 8.0 | 16.0 | 0.12 | 1.01 | 1.01 | 81 | 1013.9 |
| 20260904152650 | 79 | 19 | 10.0 | 16.0 | 0.14 | 1.00 | 1.00 | 82 | 1014.1 |
| 20260904152156 | 78 | 18 | 11.0 | 16.0 | 0.19 | 0.99 | 0.99 | 82 | 1014.0 |
| 20260904151657 | 78 | 21 | 9.0 | 14.0 | 0.86 | 0.97 | 0.97 | 82 | 1014.1 |
| 20260904151200 | 79 | 48 | 6.0 | 13.0 | 0.33 | 0.84 | 0.84 | 81 | 1014.4 |
| 20260904150656 | 79 | 41 | 4.0 | 17.0 | 0.94 | 0.80 | 0.80 | 80 | 1014.4 |
| 20260904150153 | 79 | 2 | 5.0 | 17.0 | 2.13 | 0.70 | 0.70 | 80 | 1014.6 |
| 20260904145024 | 81 | 15 | 3.0 | 15.0 | 4.19 | 0.40 | 0.42 | 79 | 1014.0 |
| 20260904144510 | 81 | 100 | 2.0 | 13.0 | 2.58 | 0.14 | 0.16 | 78 | 1013.9 |
| 20260904143957 | 81 | 333 | 3.0 | 13.0 | 0.05 | 0.04 | 0.04 | 78 | 1013.8 |
| 20260904143500 | 81 | 57 | 5.0 | 16.0 | 0.07 | 0.04 | 0.04 | 77 | 1013.6 |
| 20260904143006 | 81 | 344 | 6.0 | 16.0 | 0.07 | 0.04 | 0.04 | 77 | 1013.5 |
| 20260904142447 | 81 | 17 | 8.0 | 16.0 | 0.12 | 0.03 | 0.03 | 75 | 1013.5 |
| 20260904141338 | 84 | 17 | 2.0 | 9.0 | 0.00 | 0.00 | 0.00 | 72 | 1013.4 |
| 20260904140816 | 85 | 293 | 2.0 | 10.0 | 0.00 | 0.00 | 0.00 | 72 | 1013.4 |
| 20260904135658 | 87 | 34 | 4.0 | 10.0 | 0.00 | 0.00 | 0.00 | 75 | 1013.1 |
| 20260904135148 | 87 | 72 | 4.0 | 10.0 | 0.00 | 0.00 | 0.00 | 74 | 1013.2 |
| 20260904133418 | 88 | 170 | 1.0 | 4.0 | 0.00 | 0.00 | 0.00 | 75 | 1013.0 |
| 20260904132917 | 88 | 201 | 2.0 | 4.0 | 0.00 | 0.00 | 0.00 | 75 | 1012.9 |
| 20260904132358 | 88 | 191 | 2.0 | 4.0 | 0.00 | 0.00 | 0.00 | 75 | 1012.9 |
| 20260904131846 | 88 | 179 | 2.0 | 4.0 | 0.00 | 0.00 | 0.00 | 75 | 1012.8 |
| 20260904131346 | 88 | 186 | 2.0 | 4.0 | 0.00 | 0.00 | 0.00 | 76 | 1012.8 |
| 20260904130829 | 88 | 195 | 2.0 | 4.0 | 0.00 | 0.00 | 0.00 | 76 | 1012.8 |
| 20260904130318 | 88 | 191 | 2.0 | 4.0 | 0.00 | 0.00 | 0.00 | 76 | 1012.7 |
| 20260904125821 | 87 | 2 | 2.0 | 4.0 | 0.00 | 0.00 | 0.00 | 75 | 1012.8 |
| 20260904124841 | 87 | 211 | 3.0 | 5.0 | 0.00 | 0.00 | 0.00 | 76 | 1012.7 |
| 20260904124346 | 87 | 2 | 2.0 | 5.0 | 0.00 | 0.00 | 0.00 | 76 | 1012.6 |
| 20260904123853 | 87 | 196 | 2.0 | 5.0 | 0.00 | 0.00 | 0.00 | 76 | 1012.5 |
| 20260904123350 | 87 | 198 | 2.0 | 5.0 | 0.00 | 0.00 | 0.00 | 76 | 1012.5 |
| 20260904122204 | 87 | 190 | 2.0 | 7.0 | 0.00 | 0.00 | 0.00 | 76 | 1012.2 |
| 20260904121647 | 87 | 214 | 3.0 | 7.0 | 0.00 | 0.00 | 0.00 | 76 | 1012.1 |
| 20260904121128 | 87 | 215 | 2.0 | 6.0 | 0.00 | 0.00 | 0.00 | 76 | 1012.1 |
| 20260904120625 | 87 | 2 | 2.0 | 6.0 | 0.00 | 0.00 | 0.00 | 76 | 1012.1 |
| 20260904120132 | 87 | 207 | 2.0 | 6.0 | 0.00 | 0.00 | 0.00 | 76 | 1012.2 |
| 20260904115634 | 87 | 210 | 3.0 | 8.0 | 0.00 | 0.00 | 0.00 | 76 | 1012.2 |
| 20260904115115 | 87 | 206 | 3.0 | 8.0 | 0.00 | 0.00 | 0.00 | 76 | 1012.1 |
| 20260904114606 | 87 | 198 | 3.0 | 8.0 | 0.00 | 0.00 | 0.00 | 76 | 1011.9 |
| 20260904114111 | 87 | 210 | 3.0 | 8.0 | 0.00 | 0.00 | 0.00 | 76 | 1012.0 |
| 20260904113613 | 87 | 213 | 2.0 | 5.0 | 0.00 | 0.00 | 0.00 | 77 | 1011.9 |
| 20260904112441 | 87 | 216 | 2.0 | 5.0 | 0.00 | 0.00 | 0.00 | 77 | 1011.9 |
| 20260904111924 | 87 | 216 | 2.0 | 5.0 | 0.00 | 0.00 | 0.00 | 77 | 1012.0 |
| 20260904111432 | 87 | 198 | 3.0 | 8.0 | 0.00 | 0.00 | 0.00 | 77 | 1012.1 |
| 20260904110928 | 87 | 212 | 3.0 | 8.0 | 0.00 | 0.00 | 0.00 | 77 | 1012.2 |
| 20260904105822 | 87 | 198 | 3.0 | 8.0 | 0.00 | 0.00 | 0.00 | 76 | 1012.1 |
| 20260904105305 | 87 | 202 | 3.0 | 8.0 | 0.00 | 0.00 | 0.00 | 76 | 1012.1 |
| 20260904104132 | 87 | 216 | 3.0 | 8.0 | 0.00 | 0.00 | 0.00 | 76 | 1011.9 |
| 20260904103623 | 87 | 188 | 3.0 | 10.0 | 0.00 | 0.00 | 0.00 | 76 | 1011.8 |
| 20260904103122 | 87 | 189 | 4.0 | 10.0 | 0.00 | 0.00 | 0.00 | 76 | 1011.7 |
| 20260904102630 | 87 | 188 | 4.0 | 10.0 | 0.00 | 0.00 | 0.00 | 76 | 1011.7 |
| 20260904102107 | 87 | 203 | 5.0 | 10.0 | 0.00 | 0.00 | 0.00 | 76 | 1011.6 |
| 20260904101613 | 87 | 204 | 5.0 | 9.0 | 0.00 | 0.00 | 0.00 | 76 | 1011.5 |
| 20260904101051 | 87 | 204 | 5.0 | 9.0 | 0.00 | 0.00 | 0.00 | 75 | 1011.5 |
| 20260904100550 | 87 | 197 | 5.0 | 10.0 | 0.00 | 0.00 | 0.00 | 75 | 1011.6 |
| 20260904095424 | 87 | 194 | 6.0 | 10.0 | 0.00 | 0.00 | 0.00 | 75 | 1011.5 |
| 20260904094930 | 87 | 2 | 5.0 | 10.0 | 0.00 | 0.00 | 0.00 | 75 | 1011.5 |
| 20260904094425 | 87 | 191 | 5.0 | 9.0 | 0.00 | 0.00 | 0.00 | 76 | 1011.5 |
| 20260904093923 | 87 | 2 | 5.0 | 10.0 | 0.00 | 0.00 | 0.00 | 75 | 1011.5 |
| 20260904093411 | 87 | 198 | 5.0 | 10.0 | 0.00 | 0.00 | 0.00 | 75 | 1011.4 |
| 20260904092250 | 87 | 214 | 5.0 | 10.0 | 0.00 | 0.00 | 0.00 | 75 | 1011.4 |
| 20260904091755 | 87 | 2 | 5.0 | 10.0 | 0.00 | 0.00 | 0.00 | 75 | 1011.3 |
| 20260904091249 | 87 | 177 | 5.0 | 10.0 | 0.00 | 0.00 | 0.00 | 75 | 1011.4 |
| 20260904085557 | 87 | 212 | 6.0 | 10.0 | 0.00 | 0.00 | 0.00 | 75 | 1011.3 |
| 20260904084415 | 87 | 2 | 7.0 | 12.0 | 0.00 | 0.00 | 0.00 | 75 | 1011.2 |
| 20260904083911 | 87 | 186 | 7.0 | 12.0 | 0.00 | 0.00 | 0.00 | 76 | 1011.2 |
| 20260904083352 | 87 | 223 | 8.0 | 12.0 | 0.00 | 0.00 | 0.00 | 76 | 1011.3 |
| 20260904082855 | 87 | 176 | 8.0 | 12.0 | 0.00 | 0.00 | 0.00 | 76 | 1011.3 |
| 20260904081733 | 87 | 178 | 8.0 | 11.0 | 0.00 | 0.00 | 0.00 | 76 | 1011.3 |
| 20260904080611 | 87 | 2 | 8.0 | 12.0 | 0.00 | 0.00 | 0.00 | 77 | 1011.3 |
| 20260904080055 | 87 | 213 | 8.0 | 12.0 | 0.00 | 0.00 | 0.00 | 77 | 1011.4 |
| 20260904075537 | 87 | 2 | 8.0 | 12.0 | 0.00 | 0.00 | 0.00 | 77 | 1011.4 |
| 20260904074403 | 88 | 2 | 9.0 | 12.0 | 0.00 | 0.00 | 0.00 | 77 | 1011.4 |
| 20260904073228 | 88 | 194 | 8.0 | 13.0 | 0.00 | 0.00 | 0.00 | 76 | 1011.6 |
| 20260904072713 | 88 | 196 | 8.0 | 13.0 | 0.00 | 0.00 | 0.00 | 76 | 1011.5 |
| 20260904072209 | 88 | 200 | 8.0 | 13.0 | 0.00 | 0.00 | 0.00 | 76 | 1011.5 |
| 20260904071653 | 88 | 213 | 9.0 | 14.0 | 0.00 | 0.00 | 0.00 | 76 | 1011.7 |
| 20260904070519 | 88 | 192 | 10.0 | 14.0 | 0.00 | 0.00 | 0.00 | 76 | 1011.7 |
| 20260904070012 | 88 | 196 | 10.0 | 14.0 | 0.00 | 0.00 | 0.00 | 76 | 1011.7 |
| 20260904064834 | 88 | 204 | 10.0 | 13.0 | 0.00 | 0.00 | 0.00 | 75 | 1011.7 |
| 20260904063712 | 88 | 184 | 10.0 | 14.0 | 0.00 | 0.00 | 0.00 | 76 | 1011.7 |
| 20260904063150 | 88 | 194 | 10.0 | 14.0 | 0.00 | 0.00 | 0.00 | 75 | 1011.6 |
| 20260904062647 | 88 | 205 | 10.0 | 14.0 | 0.00 | 0.00 | 0.00 | 76 | 1011.6 |
| 20260904062148 | 88 | 194 | 10.0 | 14.0 | 0.00 | 0.00 | 0.00 | 76 | 1011.6 |
| 20260904061641 | 88 | 195 | 10.0 | 14.0 | 0.00 | 0.00 | 0.00 | 75 | 1011.6 |
| 20260904061139 | 88 | 180 | 10.0 | 15.0 | 0.00 | 0.00 | 0.00 | 76 | 1011.7 |
| 20260904060620 | 88 | 194 | 10.0 | 15.0 | 0.00 | 0.00 | 0.00 | 76 | 1011.7 |
| 20260904060116 | 88 | 2 | 11.0 | 15.0 | 0.00 | 0.00 | 0.00 | 75 | 1011.8 |
| 20260904055602 | 88 | 194 | 10.0 | 15.0 | 0.00 | 0.00 | 0.00 | 75 | 1011.9 |
| 20260904054414 | 88 | 2 | 10.0 | 15.0 | 0.00 | 0.00 | 0.00 | 76 | 1012.1 |
| 20260904053900 | 88 | 180 | 10.0 | 14.0 | 0.00 | 0.00 | 0.00 | 75 | 1012.1 |
| 20260904053342 | 88 | 186 | 10.0 | 14.0 | 0.00 | 0.00 | 0.00 | 75 | 1012.1 |
| 20260904052822 | 88 | 190 | 9.0 | 14.0 | 0.00 | 0.00 | 0.00 | 75 | 1012.1 |